owner,sensor,date,latitude,longitude,vertical_datum,mass_concentration_of_oxygen_in_sea_water,qcFlag 
DISL,ioos:station:DISL:DISL:1,2011-04-01T00:00:00Z,30.2513,-88.0778,6.43,9.24,1111122 
DISL,ioos:station:DISL:DISL:1,2011-04-01T00:30:00Z,30.2513,-88.0778,6.52,9.08,1111122 
DISL,ioos:station:DISL:DISL:1,2011-04-01T01:00:00Z,30.2513,-88.0778,6.526,9.04,1111122 
DISL,ioos:station:DISL:DISL:1,2011-04-01T01:30:00Z,30.2513,-88.0778,6.527,9.48,1111122 
DISL,ioos:station:DISL:DISL:1,2011-04-01T02:00:00Z,30.2513,-88.0778,6.558,9.67,1111122 
DISL,ioos:station:DISL:DISL:1,2011-04-01T02:30:00Z,30.2513,-88.0778,6.576,9.5,1111122 
DISL,ioos:station:DISL:DISL:1,2011-04-01T03:00:00Z,30.2513,-88.0778,6.621,9.65,1111122 
DISL,ioos:station:DISL:DISL:1,2011-04-01T03:30:00Z,30.2513,-88.0778,6.64,9.36,1111122 
DISL,ioos:station:DISL:DISL:1,2011-04-01T04:00:00Z,30.2513,-88.0778,6.659,9.45,1111122 
DISL,ioos:station:DISL:DISL:1,2011-04-01T04:30:00Z,30.2513,-88.0778,6.688,9.36,1111122 
DISL,ioos:station:DISL:DISL:1,2011-04-01T05:00:00Z,30.2513,-88.0778,6.769,9.21,1111122 
DISL,ioos:station:DISL:DISL:1,2011-04-01T05:30:00Z,30.2513,-88.0778,6.646,9.33,1111122 
DISL,ioos:station:DISL:DISL:1,2011-04-01T06:00:00Z,30.2513,-88.0778,6.654,9.3,1111122 
DISL,ioos:station:DISL:DISL:1,2011-04-01T06:30:00Z,30.2513,-88.0778,6.669,9.19,1111122 
DISL,ioos:station:DISL:DISL:1,2011-04-01T07:00:00Z,30.2513,-88.0778,6.539,9.18,1111122 
DISL,ioos:station:DISL:DISL:1,2011-04-01T07:30:00Z,30.2513,-88.0778,6.511,8.98,1111122 
DISL,ioos:station:DISL:DISL:1,2011-04-01T08:00:00Z,30.2513,-88.0778,6.521,9.04,1111122 
DISL,ioos:station:DISL:DISL:1,2011-04-01T08:30:00Z,30.2513,-88.0778,6.419,9.29,1111122 
DISL,ioos:station:DISL:DISL:1,2011-04-01T09:00:00Z,30.2513,-88.0778,6.468,9.06,1111122 
DISL,ioos:station:DISL:DISL:1,2011-04-01T09:30:00Z,30.2513,-88.0778,6.469,9.23,1111122 
DISL,ioos:station:DISL:DISL:1,2011-04-01T10:00:00Z,30.2513,-88.0778,6.389,8.77,1111122 
DISL,ioos:station:DISL:DISL:1,2011-04-01T10:30:00Z,30.2513,-88.0778,6.449,8.39,1111122 
DISL,ioos:station:DISL:DISL:1,2011-04-01T11:00:00Z,30.2513,-88.0778,6.461,8.21,1111122 
DISL,ioos:station:DISL:DISL:1,2011-04-01T11:30:00Z,30.2513,-88.0778,6.512,8.32,1111122 
DISL,ioos:station:DISL:DISL:1,2011-04-01T12:00:00Z,30.2513,-88.0778,6.521,8.25,1111122 
DISL,ioos:station:DISL:DISL:1,2011-04-01T12:30:00Z,30.2513,-88.0778,6.423,8.13,1111122 
DISL,ioos:station:DISL:DISL:1,2011-04-01T13:00:00Z,30.2513,-88.0778,6.467,8.29,1111122 
DISL,ioos:station:DISL:DISL:1,2011-04-01T13:30:00Z,30.2513,-88.0778,6.405,8.7,1111122 
DISL,ioos:station:DISL:DISL:1,2011-04-01T14:00:00Z,30.2513,-88.0778,6.507,8.64,1111122 
DISL,ioos:station:DISL:DISL:1,2011-04-01T14:30:00Z,30.2513,-88.0778,6.511,8.66,1111122 
DISL,ioos:station:DISL:DISL:1,2011-04-01T15:00:00Z,30.2513,-88.0778,6.517,8.66,1111122 
DISL,ioos:station:DISL:DISL:1,2011-04-01T15:30:00Z,30.2513,-88.0778,6.47,8.85,1111122 
DISL,ioos:station:DISL:DISL:1,2011-04-01T16:00:00Z,30.2513,-88.0778,6.493,8.85,1111122 
DISL,ioos:station:DISL:DISL:1,2011-04-01T16:30:00Z,30.2513,-88.0778,6.505,9.12,1111122 
DISL,ioos:station:DISL:DISL:1,2011-04-01T17:00:00Z,30.2513,-88.0778,6.441,8.99,1111122 
DISL,ioos:station:DISL:DISL:1,2011-04-01T17:30:00Z,30.2513,-88.0778,6.331,9.26,1111122 
DISL,ioos:station:DISL:DISL:1,2011-04-01T18:00:00Z,30.2513,-88.0778,6.299,9.46,1111122 
DISL,ioos:station:DISL:DISL:1,2011-04-01T18:30:00Z,30.2513,-88.0778,6.258,9.28,1111122 
DISL,ioos:station:DISL:DISL:1,2011-04-01T19:00:00Z,30.2513,-88.0778,6.225,9.8,1111122 
DISL,ioos:station:DISL:DISL:1,2011-04-01T19:30:00Z,30.2513,-88.0778,6.177,9.8,1111122 
DISL,ioos:station:DISL:DISL:1,2011-04-01T20:00:00Z,30.2513,-88.0778,6.16,9.74,1111122 
DISL,ioos:station:DISL:DISL:1,2011-04-01T20:30:00Z,30.2513,-88.0778,6.068,10.14,1111122 
DISL,ioos:station:DISL:DISL:1,2011-04-01T21:00:00Z,30.2513,-88.0778,6.009,9.96,1111122 
DISL,ioos:station:DISL:DISL:1,2011-04-01T21:30:00Z,30.2513,-88.0778,6.044,10.03,1111122 
DISL,ioos:station:DISL:DISL:1,2011-04-01T22:00:00Z,30.2513,-88.0778,6.053,10.0,1111122 
DISL,ioos:station:DISL:DISL:1,2011-04-01T22:30:00Z,30.2513,-88.0778,5.976,9.62,1111122 
DISL,ioos:station:DISL:DISL:1,2011-04-01T23:00:00Z,30.2513,-88.0778,6.049,9.87,1111122 
DISL,ioos:station:DISL:DISL:1,2011-04-01T23:30:00Z,30.2513,-88.0778,5.989,9.65,1111122 
DISL,ioos:station:DISL:DISL:1,2011-04-02T00:00:00Z,30.2513,-88.0778,6.033,9.28,1111122 
DISL,ioos:station:DISL:DISL:1,2011-04-02T00:30:00Z,30.2513,-88.0778,6.045,9.34,1111122 
DISL,ioos:station:DISL:DISL:1,2011-04-02T01:00:00Z,30.2513,-88.0778,6.139,9.3,1111122 
DISL,ioos:station:DISL:DISL:1,2011-04-02T01:30:00Z,30.2513,-88.0778,6.153,8.93,1111122 
DISL,ioos:station:DISL:DISL:1,2011-04-02T02:00:00Z,30.2513,-88.0778,6.155,8.6,1111122 
DISL,ioos:station:DISL:DISL:1,2011-04-02T02:30:00Z,30.2513,-88.0778,6.153,8.71,1111122 
DISL,ioos:station:DISL:DISL:1,2011-04-02T03:00:00Z,30.2513,-88.0778,6.205,8.69,1111122 
DISL,ioos:station:DISL:DISL:1,2011-04-02T03:30:00Z,30.2513,-88.0778,6.249,8.44,1111122 
DISL,ioos:station:DISL:DISL:1,2011-04-02T04:00:00Z,30.2513,-88.0778,6.241,8.56,1111122 
DISL,ioos:station:DISL:DISL:1,2011-04-02T04:30:00Z,30.2513,-88.0778,6.235,8.64,1111122 
DISL,ioos:station:DISL:DISL:1,2011-04-02T05:00:00Z,30.2513,-88.0778,6.322,8.58,1111122 
DISL,ioos:station:DISL:DISL:1,2011-04-02T05:30:00Z,30.2513,-88.0778,6.251,8.58,1111122 
DISL,ioos:station:DISL:DISL:1,2011-04-02T06:00:00Z,30.2513,-88.0778,6.273,8.37,1111122 
DISL,ioos:station:DISL:DISL:1,2011-04-02T06:30:00Z,30.2513,-88.0778,6.253,8.41,1111122 
DISL,ioos:station:DISL:DISL:1,2011-04-02T07:00:00Z,30.2513,-88.0778,6.234,8.46,1111122 
DISL,ioos:station:DISL:DISL:1,2011-04-02T07:30:00Z,30.2513,-88.0778,6.233,8.32,1111122 
DISL,ioos:station:DISL:DISL:1,2011-04-02T08:00:00Z,30.2513,-88.0778,6.158,8.34,1111122 
DISL,ioos:station:DISL:DISL:1,2011-04-02T08:30:00Z,30.2513,-88.0778,6.234,8.13,1111122 
DISL,ioos:station:DISL:DISL:1,2011-04-02T09:00:00Z,30.2513,-88.0778,6.224,8.33,1111122 
DISL,ioos:station:DISL:DISL:1,2011-04-02T09:30:00Z,30.2513,-88.0778,6.192,8.39,1111122 
DISL,ioos:station:DISL:DISL:1,2011-04-02T10:00:00Z,30.2513,-88.0778,6.242,8.29,1111122 
DISL,ioos:station:DISL:DISL:1,2011-04-02T10:30:00Z,30.2513,-88.0778,6.213,8.38,1111122 
DISL,ioos:station:DISL:DISL:1,2011-04-02T11:00:00Z,30.2513,-88.0778,6.227,8.01,1111122 
DISL,ioos:station:DISL:DISL:1,2011-04-02T11:30:00Z,30.2513,-88.0778,6.274,8.28,1111122 
DISL,ioos:station:DISL:DISL:1,2011-04-02T12:00:00Z,30.2513,-88.0778,6.214,7.78,1111122 
DISL,ioos:station:DISL:DISL:1,2011-04-02T12:30:00Z,30.2513,-88.0778,6.277,7.79,1111122 
DISL,ioos:station:DISL:DISL:1,2011-04-02T13:00:00Z,30.2513,-88.0778,6.266,8.08,1111122 
DISL,ioos:station:DISL:DISL:1,2011-04-02T13:30:00Z,30.2513,-88.0778,6.263,8.12,1111122 
DISL,ioos:station:DISL:DISL:1,2011-04-02T14:00:00Z,30.2513,-88.0778,6.242,8.04,1111122 
DISL,ioos:station:DISL:DISL:1,2011-04-02T14:30:00Z,30.2513,-88.0778,6.237,8.05,1111122 
DISL,ioos:station:DISL:DISL:1,2011-04-02T15:00:00Z,30.2513,-88.0778,6.214,8.36,1111122 
DISL,ioos:station:DISL:DISL:1,2011-04-02T15:30:00Z,30.2513,-88.0778,6.219,8.17,1111122 
DISL,ioos:station:DISL:DISL:1,2011-04-02T16:00:00Z,30.2513,-88.0778,6.2,8.22,1111122 
DISL,ioos:station:DISL:DISL:1,2011-04-02T16:30:00Z,30.2513,-88.0778,6.287,7.94,1111122 
DISL,ioos:station:DISL:DISL:1,2011-04-02T17:00:00Z,30.2513,-88.0778,6.172,8.03,1111122 
DISL,ioos:station:DISL:DISL:1,2011-04-02T17:30:00Z,30.2513,-88.0778,6.196,9.13,1111122 
DISL,ioos:station:DISL:DISL:1,2011-04-02T18:00:00Z,30.2513,-88.0778,6.134,8.96,1111122 
DISL,ioos:station:DISL:DISL:1,2011-04-02T18:30:00Z,30.2513,-88.0778,6.1,8.46,1111122 
DISL,ioos:station:DISL:DISL:1,2011-04-02T19:00:00Z,30.2513,-88.0778,5.977,8.72,1111122 
DISL,ioos:station:DISL:DISL:1,2011-04-02T19:30:00Z,30.2513,-88.0778,6.003,8.96,1111122 
DISL,ioos:station:DISL:DISL:1,2011-04-02T20:00:00Z,30.2513,-88.0778,5.858,8.96,1111122 
DISL,ioos:station:DISL:DISL:1,2011-04-02T20:30:00Z,30.2513,-88.0778,5.88,8.66,1111122 
DISL,ioos:station:DISL:DISL:1,2011-04-02T21:00:00Z,30.2513,-88.0778,5.809,8.96,1111122 
DISL,ioos:station:DISL:DISL:1,2011-04-02T21:30:00Z,30.2513,-88.0778,5.827,8.55,1111122 
DISL,ioos:station:DISL:DISL:1,2011-04-02T22:00:00Z,30.2513,-88.0778,5.783,9.94,1111122 
DISL,ioos:station:DISL:DISL:1,2011-04-02T22:30:00Z,30.2513,-88.0778,5.773,10.24,1111122 
DISL,ioos:station:DISL:DISL:1,2011-04-02T23:00:00Z,30.2513,-88.0778,5.762,10.07,1111122 
DISL,ioos:station:DISL:DISL:1,2011-04-02T23:30:00Z,30.2513,-88.0778,5.695,10.09,1111122 
DISL,ioos:station:DISL:DISL:1,2011-04-03T00:00:00Z,30.2513,-88.0778,5.719,10.03,1111122 
DISL,ioos:station:DISL:DISL:1,2011-04-03T00:30:00Z,30.2513,-88.0778,5.76,10.08,1111122 
DISL,ioos:station:DISL:DISL:1,2011-04-03T01:00:00Z,30.2513,-88.0778,5.782,9.29,1111122 
DISL,ioos:station:DISL:DISL:1,2011-04-03T01:30:00Z,30.2513,-88.0778,5.886,9.15,1111122 
DISL,ioos:station:DISL:DISL:1,2011-04-03T02:00:00Z,30.2513,-88.0778,5.702,9.44,1111122 
DISL,ioos:station:DISL:DISL:1,2011-04-03T02:30:00Z,30.2513,-88.0778,5.808,8.9,1111122 
DISL,ioos:station:DISL:DISL:1,2011-04-03T03:00:00Z,30.2513,-88.0778,5.843,8.22,1111122 
DISL,ioos:station:DISL:DISL:1,2011-04-03T03:30:00Z,30.2513,-88.0778,5.855,8.22,1111122 
DISL,ioos:station:DISL:DISL:1,2011-04-03T04:00:00Z,30.2513,-88.0778,5.908,8.57,1111122 
DISL,ioos:station:DISL:DISL:1,2011-04-03T04:30:00Z,30.2513,-88.0778,5.888,8.66,1111122 
DISL,ioos:station:DISL:DISL:1,2011-04-03T05:00:00Z,30.2513,-88.0778,5.942,9.0,1111122 
DISL,ioos:station:DISL:DISL:1,2011-04-03T05:30:00Z,30.2513,-88.0778,5.977,8.97,1111122 
DISL,ioos:station:DISL:DISL:1,2011-04-03T06:00:00Z,30.2513,-88.0778,5.989,8.67,1111122 
DISL,ioos:station:DISL:DISL:1,2011-04-03T06:30:00Z,30.2513,-88.0778,6.057,8.27,1111122 
DISL,ioos:station:DISL:DISL:1,2011-04-03T07:00:00Z,30.2513,-88.0778,6.077,7.82,1111122 
DISL,ioos:station:DISL:DISL:1,2011-04-03T07:30:00Z,30.2513,-88.0778,6.104,7.73,1111122 
DISL,ioos:station:DISL:DISL:1,2011-04-03T08:00:00Z,30.2513,-88.0778,6.109,7.8,1111122 
DISL,ioos:station:DISL:DISL:1,2011-04-03T08:30:00Z,30.2513,-88.0778,6.117,7.64,1111122 
DISL,ioos:station:DISL:DISL:1,2011-04-03T09:00:00Z,30.2513,-88.0778,6.098,6.93,1111122 
DISL,ioos:station:DISL:DISL:1,2011-04-03T09:30:00Z,30.2513,-88.0778,6.084,7.56,1111122 
DISL,ioos:station:DISL:DISL:1,2011-04-03T10:00:00Z,30.2513,-88.0778,6.118,7.19,1111122 
DISL,ioos:station:DISL:DISL:1,2011-04-03T10:30:00Z,30.2513,-88.0778,6.151,8.16,1111122 
DISL,ioos:station:DISL:DISL:1,2011-04-03T11:00:00Z,30.2513,-88.0778,6.224,8.07,1111122 
DISL,ioos:station:DISL:DISL:1,2011-04-03T11:30:00Z,30.2513,-88.0778,6.191,8.53,1111122 
DISL,ioos:station:DISL:DISL:1,2011-04-03T12:00:00Z,30.2513,-88.0778,6.258,8.46,1111122 
DISL,ioos:station:DISL:DISL:1,2011-04-03T12:30:00Z,30.2513,-88.0778,6.317,8.39,1111122 
DISL,ioos:station:DISL:DISL:1,2011-04-03T13:00:00Z,30.2513,-88.0778,6.335,8.09,1111122 
DISL,ioos:station:DISL:DISL:1,2011-04-03T13:30:00Z,30.2513,-88.0778,6.32,8.1,1111122 
DISL,ioos:station:DISL:DISL:1,2011-04-03T14:00:00Z,30.2513,-88.0778,6.323,8.11,1111122 
DISL,ioos:station:DISL:DISL:1,2011-04-03T14:30:00Z,30.2513,-88.0778,6.36,7.99,1111122 
DISL,ioos:station:DISL:DISL:1,2011-04-03T15:00:00Z,30.2513,-88.0778,6.362,7.94,1111122 
DISL,ioos:station:DISL:DISL:1,2011-04-03T15:30:00Z,30.2513,-88.0778,6.483,8.47,1111122 
DISL,ioos:station:DISL:DISL:1,2011-04-03T16:00:00Z,30.2513,-88.0778,6.361,8.28,1111122 
DISL,ioos:station:DISL:DISL:1,2011-04-03T16:30:00Z,30.2513,-88.0778,6.347,8.21,1111122 
DISL,ioos:station:DISL:DISL:1,2011-04-03T17:00:00Z,30.2513,-88.0778,6.404,8.38,1111122 
DISL,ioos:station:DISL:DISL:1,2011-04-03T17:30:00Z,30.2513,-88.0778,6.304,8.75,1111122 
DISL,ioos:station:DISL:DISL:1,2011-04-03T18:00:00Z,30.2513,-88.0778,6.259,8.75,1111122 
DISL,ioos:station:DISL:DISL:1,2011-04-03T18:30:00Z,30.2513,-88.0778,6.249,9.42,1111122 
DISL,ioos:station:DISL:DISL:1,2011-04-03T19:00:00Z,30.2513,-88.0778,6.12,9.58,1111122 
DISL,ioos:station:DISL:DISL:1,2011-04-03T19:30:00Z,30.2513,-88.0778,6.073,9.71,1111122 
DISL,ioos:station:DISL:DISL:1,2011-04-03T20:00:00Z,30.2513,-88.0778,5.989,9.88,1111122 
DISL,ioos:station:DISL:DISL:1,2011-04-03T20:30:00Z,30.2513,-88.0778,5.968,9.75,1111122 
DISL,ioos:station:DISL:DISL:1,2011-04-03T21:00:00Z,30.2513,-88.0778,5.956,9.43,1111122 
DISL,ioos:station:DISL:DISL:1,2011-04-03T21:30:00Z,30.2513,-88.0778,5.849,9.12,1111122 
DISL,ioos:station:DISL:DISL:1,2011-04-03T22:00:00Z,30.2513,-88.0778,5.753,9.24,1111122 
DISL,ioos:station:DISL:DISL:1,2011-04-03T22:30:00Z,30.2513,-88.0778,5.737,9.23,1111122 
DISL,ioos:station:DISL:DISL:1,2011-04-03T23:00:00Z,30.2513,-88.0778,5.729,9.28,1111122 
DISL,ioos:station:DISL:DISL:1,2011-04-03T23:30:00Z,30.2513,-88.0778,5.689,9.07,1111122 
DISL,ioos:station:DISL:DISL:1,2011-04-04T00:00:00Z,30.2513,-88.0778,5.658,9.27,1111122 
DISL,ioos:station:DISL:DISL:1,2011-04-04T00:30:00Z,30.2513,-88.0778,5.723,9.49,1111122 
DISL,ioos:station:DISL:DISL:1,2011-04-04T01:00:00Z,30.2513,-88.0778,5.648,9.8,1111122 
DISL,ioos:station:DISL:DISL:1,2011-04-04T01:30:00Z,30.2513,-88.0778,5.712,9.65,1111122 
DISL,ioos:station:DISL:DISL:1,2011-04-04T02:00:00Z,30.2513,-88.0778,5.664,9.4,1111122 
DISL,ioos:station:DISL:DISL:1,2011-04-04T02:30:00Z,30.2513,-88.0778,5.712,9.24,1111122 
DISL,ioos:station:DISL:DISL:1,2011-04-04T03:00:00Z,30.2513,-88.0778,5.746,9.01,1111122 
DISL,ioos:station:DISL:DISL:1,2011-04-04T03:30:00Z,30.2513,-88.0778,5.734,8.87,1111122 
DISL,ioos:station:DISL:DISL:1,2011-04-04T04:00:00Z,30.2513,-88.0778,5.891,8.76,1111122 
DISL,ioos:station:DISL:DISL:1,2011-04-04T04:30:00Z,30.2513,-88.0778,5.867,8.46,1111122 
DISL,ioos:station:DISL:DISL:1,2011-04-04T05:00:00Z,30.2513,-88.0778,5.962,8.35,1111122 
DISL,ioos:station:DISL:DISL:1,2011-04-04T05:30:00Z,30.2513,-88.0778,6.021,7.46,1111122 
DISL,ioos:station:DISL:DISL:1,2011-04-04T06:00:00Z,30.2513,-88.0778,5.981,8.44,1111122 
DISL,ioos:station:DISL:DISL:1,2011-04-04T06:30:00Z,30.2513,-88.0778,6.051,8.37,1111122 
DISL,ioos:station:DISL:DISL:1,2011-04-04T07:00:00Z,30.2513,-88.0778,6.204,8.24,1111122 
DISL,ioos:station:DISL:DISL:1,2011-04-04T07:30:00Z,30.2513,-88.0778,6.223,8.62,1111122 
DISL,ioos:station:DISL:DISL:1,2011-04-04T08:00:00Z,30.2513,-88.0778,6.23,8.62,1111122 
DISL,ioos:station:DISL:DISL:1,2011-04-04T08:30:00Z,30.2513,-88.0778,6.276,7.88,1111122 
DISL,ioos:station:DISL:DISL:1,2011-04-04T09:00:00Z,30.2513,-88.0778,6.412,7.49,1111122 
DISL,ioos:station:DISL:DISL:1,2011-04-04T09:30:00Z,30.2513,-88.0778,6.379,7.51,1111122 
DISL,ioos:station:DISL:DISL:1,2011-04-04T10:00:00Z,30.2513,-88.0778,6.537,7.59,1111122 
DISL,ioos:station:DISL:DISL:1,2011-04-04T10:30:00Z,30.2513,-88.0778,6.596,7.64,1111122 
DISL,ioos:station:DISL:DISL:1,2011-04-04T11:00:00Z,30.2513,-88.0778,6.524,7.55,1111122 
DISL,ioos:station:DISL:DISL:1,2011-04-04T11:30:00Z,30.2513,-88.0778,6.552,7.45,1111122 
DISL,ioos:station:DISL:DISL:1,2011-04-04T12:00:00Z,30.2513,-88.0778,6.743,7.26,1111122 
DISL,ioos:station:DISL:DISL:1,2011-04-04T12:30:00Z,30.2513,-88.0778,6.784,7.2,1111122 
DISL,ioos:station:DISL:DISL:1,2011-04-04T13:00:00Z,30.2513,-88.0778,6.853,7.26,1111122 
DISL,ioos:station:DISL:DISL:1,2011-04-04T13:30:00Z,30.2513,-88.0778,6.86,7.2,1111122 
DISL,ioos:station:DISL:DISL:1,2011-04-04T14:00:00Z,30.2513,-88.0778,6.824,7.2,1111122 
DISL,ioos:station:DISL:DISL:1,2011-04-04T14:30:00Z,30.2513,-88.0778,6.8,7.23,1111122 
DISL,ioos:station:DISL:DISL:1,2011-04-04T15:00:00Z,30.2513,-88.0778,6.917,7.21,1111122 
DISL,ioos:station:DISL:DISL:1,2011-04-04T15:30:00Z,30.2513,-88.0778,7.02,7.32,1111122 
DISL,ioos:station:DISL:DISL:1,2011-04-04T16:00:00Z,30.2513,-88.0778,6.946,7.14,1111122 
DISL,ioos:station:DISL:DISL:1,2011-04-04T16:30:00Z,30.2513,-88.0778,6.891,7.35,1111122 
DISL,ioos:station:DISL:DISL:1,2011-04-04T17:00:00Z,30.2513,-88.0778,6.978,7.9,1111122 
DISL,ioos:station:DISL:DISL:1,2011-04-04T17:30:00Z,30.2513,-88.0778,6.942,7.9,1111122 
DISL,ioos:station:DISL:DISL:1,2011-04-04T18:00:00Z,30.2513,-88.0778,7.01,8.31,1111122 
DISL,ioos:station:DISL:DISL:1,2011-04-04T18:30:00Z,30.2513,-88.0778,6.899,8.15,1111122 
DISL,ioos:station:DISL:DISL:1,2011-04-04T19:00:00Z,30.2513,-88.0778,6.885,8.18,1111122 
DISL,ioos:station:DISL:DISL:1,2011-04-04T19:30:00Z,30.2513,-88.0778,6.772,8.22,1111122 
DISL,ioos:station:DISL:DISL:1,2011-04-04T20:00:00Z,30.2513,-88.0778,6.619,8.19,1111122 
DISL,ioos:station:DISL:DISL:1,2011-04-04T20:30:00Z,30.2513,-88.0778,6.554,7.89,1111122 
DISL,ioos:station:DISL:DISL:1,2011-04-04T21:00:00Z,30.2513,-88.0778,6.486,8.34,1111122 
DISL,ioos:station:DISL:DISL:1,2011-04-04T21:30:00Z,30.2513,-88.0778,6.415,9.35,1111122 
DISL,ioos:station:DISL:DISL:1,2011-04-04T22:00:00Z,30.2513,-88.0778,6.326,9.81,1111122 
DISL,ioos:station:DISL:DISL:1,2011-04-04T22:30:00Z,30.2513,-88.0778,6.293,9.63,1111122 
DISL,ioos:station:DISL:DISL:1,2011-04-04T23:00:00Z,30.2513,-88.0778,6.113,9.96,1111122 
DISL,ioos:station:DISL:DISL:1,2011-04-04T23:30:00Z,30.2513,-88.0778,5.492,9.77,1111122 
DISL,ioos:station:DISL:DISL:1,2011-04-05T00:00:00Z,30.2513,-88.0778,5.983,9.54,1111122 
DISL,ioos:station:DISL:DISL:1,2011-04-05T00:30:00Z,30.2513,-88.0778,6.005,9.33,1111122 
DISL,ioos:station:DISL:DISL:1,2011-04-05T01:00:00Z,30.2513,-88.0778,6.019,9.17,1111122 
DISL,ioos:station:DISL:DISL:1,2011-04-05T01:30:00Z,30.2513,-88.0778,6.008,8.43,1111122 
DISL,ioos:station:DISL:DISL:1,2011-04-05T02:00:00Z,30.2513,-88.0778,6.046,8.13,1111122 
DISL,ioos:station:DISL:DISL:1,2011-04-05T02:30:00Z,30.2513,-88.0778,6.0,8.29,1111122 
DISL,ioos:station:DISL:DISL:1,2011-04-05T03:00:00Z,30.2513,-88.0778,6.137,8.28,1111122 
DISL,ioos:station:DISL:DISL:1,2011-04-05T03:30:00Z,30.2513,-88.0778,6.207,8.04,1111122 
DISL,ioos:station:DISL:DISL:1,2011-04-05T04:00:00Z,30.2513,-88.0778,6.587,7.71,1111122 
DISL,ioos:station:DISL:DISL:1,2011-04-05T04:30:00Z,30.2513,-88.0778,6.297,7.53,1111122 
DISL,ioos:station:DISL:DISL:1,2011-04-05T05:00:00Z,30.2513,-88.0778,7.07,7.49,1111122 
DISL,ioos:station:DISL:DISL:1,2011-04-05T05:30:00Z,30.2513,-88.0778,6.555,7.54,1111122 
DISL,ioos:station:DISL:DISL:1,2011-04-05T06:00:00Z,30.2513,-88.0778,6.667,7.69,1111122 
DISL,ioos:station:DISL:DISL:1,2011-04-05T06:30:00Z,30.2513,-88.0778,6.278,7.78,1111122 
DISL,ioos:station:DISL:DISL:1,2011-04-05T07:00:00Z,30.2513,-88.0778,6.322,8.1,1111122 
DISL,ioos:station:DISL:DISL:1,2011-04-05T07:30:00Z,30.2513,-88.0778,6.258,7.96,1111122 
DISL,ioos:station:DISL:DISL:1,2011-04-05T08:00:00Z,30.2513,-88.0778,6.645,7.85,1111122 
DISL,ioos:station:DISL:DISL:1,2011-04-05T08:30:00Z,30.2513,-88.0778,6.294,7.74,1111122 
DISL,ioos:station:DISL:DISL:1,2011-04-05T09:00:00Z,30.2513,-88.0778,5.731,7.78,1111122 
DISL,ioos:station:DISL:DISL:1,2011-04-05T09:30:00Z,30.2513,-88.0778,5.866,7.69,1111122 
DISL,ioos:station:DISL:DISL:1,2011-04-05T10:00:00Z,30.2513,-88.0778,5.634,7.67,1111122 
DISL,ioos:station:DISL:DISL:1,2011-04-05T10:30:00Z,30.2513,-88.0778,5.608,7.66,1111122 
DISL,ioos:station:DISL:DISL:1,2011-04-05T11:00:00Z,30.2513,-88.0778,6.04,7.8,1111122 
DISL,ioos:station:DISL:DISL:1,2011-04-05T11:30:00Z,30.2513,-88.0778,5.894,7.73,1111122 
DISL,ioos:station:DISL:DISL:1,2011-04-05T12:00:00Z,30.2513,-88.0778,5.672,7.78,1111122 
DISL,ioos:station:DISL:DISL:1,2011-04-05T12:30:00Z,30.2513,-88.0778,6.075,7.75,1111122 
DISL,ioos:station:DISL:DISL:1,2011-04-05T13:00:00Z,30.2513,-88.0778,5.726,8.01,1111122 
DISL,ioos:station:DISL:DISL:1,2011-04-05T13:30:00Z,30.2513,-88.0778,6.032,8.0,1111122 
DISL,ioos:station:DISL:DISL:1,2011-04-05T14:00:00Z,30.2513,-88.0778,6.343,7.93,1111122 
DISL,ioos:station:DISL:DISL:1,2011-04-05T14:30:00Z,30.2513,-88.0778,6.344,7.94,1111122 
DISL,ioos:station:DISL:DISL:1,2011-04-05T15:00:00Z,30.2513,-88.0778,6.362,8.07,1111122 
DISL,ioos:station:DISL:DISL:1,2011-04-05T15:30:00Z,30.2513,-88.0778,6.144,8.15,1111122 
DISL,ioos:station:DISL:DISL:1,2011-04-05T16:00:00Z,30.2513,-88.0778,6.066,8.31,1111122 
DISL,ioos:station:DISL:DISL:1,2011-04-05T16:30:00Z,30.2513,-88.0778,6.316,8.44,1111122 
DISL,ioos:station:DISL:DISL:1,2011-04-05T17:00:00Z,30.2513,-88.0778,6.285,8.77,1111122 
DISL,ioos:station:DISL:DISL:1,2011-04-05T17:30:00Z,30.2513,-88.0778,6.335,8.76,1111122 
DISL,ioos:station:DISL:DISL:1,2011-04-05T18:00:00Z,30.2513,-88.0778,6.298,8.74,1111122 
DISL,ioos:station:DISL:DISL:1,2011-04-05T18:30:00Z,30.2513,-88.0778,6.254,8.77,1111122 
DISL,ioos:station:DISL:DISL:1,2011-04-05T19:00:00Z,30.2513,-88.0778,6.303,8.93,1111122 
DISL,ioos:station:DISL:DISL:1,2011-04-05T19:30:00Z,30.2513,-88.0778,6.344,9.0,1111122 
DISL,ioos:station:DISL:DISL:1,2011-04-05T20:00:00Z,30.2513,-88.0778,6.299,9.03,1111122 
DISL,ioos:station:DISL:DISL:1,2011-04-05T20:30:00Z,30.2513,-88.0778,6.308,9.2,1111122 
DISL,ioos:station:DISL:DISL:1,2011-04-05T21:00:00Z,30.2513,-88.0778,6.24,9.43,1111122 
DISL,ioos:station:DISL:DISL:1,2011-04-05T21:30:00Z,30.2513,-88.0778,6.187,9.37,1111122 
DISL,ioos:station:DISL:DISL:1,2011-04-05T22:00:00Z,30.2513,-88.0778,6.115,9.33,1111122 
DISL,ioos:station:DISL:DISL:1,2011-04-05T22:30:00Z,30.2513,-88.0778,6.018,9.26,1111122 
DISL,ioos:station:DISL:DISL:1,2011-04-05T23:00:00Z,30.2513,-88.0778,6.019,9.7,1111122 
DISL,ioos:station:DISL:DISL:1,2011-04-05T23:30:00Z,30.2513,-88.0778,5.853,9.7,1111122 
DISL,ioos:station:DISL:DISL:1,2011-04-06T00:00:00Z,30.2513,-88.0778,5.834,9.7,1111122 
DISL,ioos:station:DISL:DISL:1,2011-04-06T00:30:00Z,30.2513,-88.0778,5.725,9.28,1111122 
DISL,ioos:station:DISL:DISL:1,2011-04-06T01:00:00Z,30.2513,-88.0778,5.679,9.1,1111122 
DISL,ioos:station:DISL:DISL:1,2011-04-06T01:30:00Z,30.2513,-88.0778,5.598,8.01,1111122 
DISL,ioos:station:DISL:DISL:1,2011-04-06T02:00:00Z,30.2513,-88.0778,5.566,8.26,1111122 
DISL,ioos:station:DISL:DISL:1,2011-04-06T02:30:00Z,30.2513,-88.0778,5.757,8.89,1111122 
DISL,ioos:station:DISL:DISL:1,2011-04-06T03:00:00Z,30.2513,-88.0778,5.486,8.54,1111122 
DISL,ioos:station:DISL:DISL:1,2011-04-06T03:30:00Z,30.2513,-88.0778,5.421,8.71,1111122 
DISL,ioos:station:DISL:DISL:1,2011-04-06T04:00:00Z,30.2513,-88.0778,5.403,8.67,1111122 
DISL,ioos:station:DISL:DISL:1,2011-04-06T04:30:00Z,30.2513,-88.0778,5.306,8.56,1111122 
DISL,ioos:station:DISL:DISL:1,2011-04-06T05:00:00Z,30.2513,-88.0778,5.384,8.25,1111122 
DISL,ioos:station:DISL:DISL:1,2011-04-06T05:30:00Z,30.2513,-88.0778,5.423,8.14,1111122 
DISL,ioos:station:DISL:DISL:1,2011-04-06T06:00:00Z,30.2513,-88.0778,5.425,8.14,1111122 
DISL,ioos:station:DISL:DISL:1,2011-04-06T06:30:00Z,30.2513,-88.0778,5.452,7.84,1111122 
DISL,ioos:station:DISL:DISL:1,2011-04-06T07:00:00Z,30.2513,-88.0778,5.555,7.92,1111122 
DISL,ioos:station:DISL:DISL:1,2011-04-06T07:30:00Z,30.2513,-88.0778,5.573,7.64,1111122 
DISL,ioos:station:DISL:DISL:1,2011-04-06T08:00:00Z,30.2513,-88.0778,5.595,7.62,1111122 
DISL,ioos:station:DISL:DISL:1,2011-04-06T08:30:00Z,30.2513,-88.0778,5.659,8.01,1111122 
DISL,ioos:station:DISL:DISL:1,2011-04-06T09:00:00Z,30.2513,-88.0778,5.72,8.04,1111122 
DISL,ioos:station:DISL:DISL:1,2011-04-06T09:30:00Z,30.2513,-88.0778,5.746,8.03,1111122 
DISL,ioos:station:DISL:DISL:1,2011-04-06T10:00:00Z,30.2513,-88.0778,5.853,7.98,1111122 
DISL,ioos:station:DISL:DISL:1,2011-04-06T10:30:00Z,30.2513,-88.0778,5.821,8.02,1111122 
DISL,ioos:station:DISL:DISL:1,2011-04-06T11:00:00Z,30.2513,-88.0778,5.891,7.87,1111122 
DISL,ioos:station:DISL:DISL:1,2011-04-06T11:30:00Z,30.2513,-88.0778,5.986,6.97,1111122 
DISL,ioos:station:DISL:DISL:1,2011-04-06T12:00:00Z,30.2513,-88.0778,6.091,6.15,1111122 
DISL,ioos:station:DISL:DISL:1,2011-04-06T12:30:00Z,30.2513,-88.0778,6.092,5.83,1111122 
DISL,ioos:station:DISL:DISL:1,2011-04-06T13:00:00Z,30.2513,-88.0778,6.324,5.61,1111122 
DISL,ioos:station:DISL:DISL:1,2011-04-06T13:30:00Z,30.2513,-88.0778,6.141,5.88,1111122 
DISL,ioos:station:DISL:DISL:1,2011-04-06T14:00:00Z,30.2513,-88.0778,6.266,5.48,1111122 
DISL,ioos:station:DISL:DISL:1,2011-04-06T14:30:00Z,30.2513,-88.0778,6.485,5.89,1111122 
DISL,ioos:station:DISL:DISL:1,2011-04-06T15:00:00Z,30.2513,-88.0778,6.644,6.01,1111122 
DISL,ioos:station:DISL:DISL:1,2011-04-06T15:30:00Z,30.2513,-88.0778,6.631,5.96,1111122 